When you browse on this site, cookies collect data to enhance your experience and personalize the content and advertising you see.
Visit our Privacy Policy to learn more. By continuing to use the site, you agree to this use of cookies and data.
  • In Hungary
  • List of Countries
  • For 7 days
  • Water Temperature
  • Weather Map
  • News
  • Weather Widgets
  • user-avatar
    Login

    Hourly Weather Corrales

    Today, 3 April, Friday

    Time Temperature Precipitation Wind Pressure Humidity
    00:00 +13°C° 0 mm 1 mps 559 mmHg 95%
    01:00 +13°C° 0 mm 1 mps 559 mmHg 96%
    02:00 +13°C° 0.1 mm 1 mps 559 mmHg 96%
    03:00 +13°C° 0.1 mm 1 mps 558 mmHg 96%
    04:00 +12°C° 0.1 mm 1 mps 558 mmHg 96%
    05:00 +13°C° 0.1 mm 1 mps 559 mmHg 95%
    06:00 +14°C° 0.1 mm 1 mps 559 mmHg 94%
    07:00 +14°C° 0.1 mm 1 mps 560 mmHg 94%
    08:00 +16°C° 0.1 mm 1 mps 561 mmHg 86%
    09:00 +19°C° 0.1 mm 1 mps 562 mmHg 79%
    10:00 +20°C° 0.1 mm 2 mps 563 mmHg 72%
    11:00 +20°C° 0.5 mm 2 mps 563 mmHg 71%
    12:00 +20°C° 0.5 mm 2 mps 562 mmHg 71%
    13:00 +21°C° 0.5 mm 2 mps 562 mmHg 70%
    14:00 +20°C° 0.9 mm 2 mps 561 mmHg 73%
    15:00 +19°C° 0.9 mm 2 mps 561 mmHg 75%
    16:00 +19°C° 0.9 mm 2 mps 560 mmHg 78%
    17:00 +18°C° 0.5 mm 1 mps 559 mmHg 83%
    18:00 +16°C° 0.5 mm 1 mps 559 mmHg 88%
    19:00 +14°C° 0.5 mm 1 mps 559 mmHg 93%
    20:00 +14°C° 0 mm 1 mps 559 mmHg 94%
    21:00 +14°C° 0 mm 1 mps 559 mmHg 94%
    22:00 +13°C° 0 mm 1 mps 559 mmHg 95%
    23:00 +13°C° 0 mm 1 mps 559 mmHg 95%

    Tomorrow, 4 April, Saturday

    Time Temperature Precipitation Wind Pressure Humidity
    00:00 +13°C° 0 mm 1 mps 558 mmHg 95%
    01:00 +12°C° 0 mm 1 mps 558 mmHg 95%
    02:00 +12°C° 0 mm 1 mps 558 mmHg 94%
    03:00 +12°C° 0 mm 1 mps 558 mmHg 94%
    04:00 +12°C° 0 mm 0 mps 558 mmHg 93%
    05:00 +12°C° 0 mm 0 mps 558 mmHg 92%
    06:00 +14°C° 0 mm 1 mps 559 mmHg 90%
    07:00 +15°C° 0 mm 1 mps 559 mmHg 89%
    08:00 +16°C° 0.1 mm 1 mps 560 mmHg 84%
    09:00 +18°C° 0.1 mm 1 mps 561 mmHg 80%
    10:00 +19°C° 0.1 mm 1 mps 562 mmHg 76%
    11:00 +20°C° 0.4 mm 1 mps 562 mmHg 75%
    12:00 +19°C° 0.4 mm 2 mps 561 mmHg 74%
    13:00 +19°C° 0.4 mm 2 mps 561 mmHg 72%
    14:00 +19°C° 0.3 mm 2 mps 560 mmHg 71%
    15:00 +21°C° 0.3 mm 1 mps 560 mmHg 71%
    16:00 +21°C° 0.3 mm 1 mps 560 mmHg 70%
    17:00 +19°C° 0.2 mm 1 mps 559 mmHg 77%
    18:00 +16°C° 0.2 mm 1 mps 559 mmHg 85%
    19:00 +15°C° 0.2 mm 1 mps 558 mmHg 93%
    20:00 +14°C° 0 mm 1 mps 558 mmHg 93%
    21:00 +14°C° 0 mm 1 mps 559 mmHg 93%
    22:00 +13°C° 0 mm 1 mps 559 mmHg 93%
    23:00 +13°C° 0 mm 1 mps 559 mmHg 91%

    Day after tomorrow, 5 April, Sunday

    Time Temperature Precipitation Wind Pressure Humidity
    00:00 +13°C° 0 mm 1 mps 558 mmHg 89%
    01:00 +13°C° 0 mm 1 mps 558 mmHg 86%
    02:00 +13°C° 0 mm 1 mps 558 mmHg 87%
    03:00 +12°C° 0 mm 1 mps 558 mmHg 88%
    04:00 +11°C° 0 mm 0 mps 557 mmHg 89%
    05:00 +12°C° 0 mm 0 mps 558 mmHg 87%
    06:00 +14°C° 0 mm 1 mps 559 mmHg 86%
    07:00 +14°C° 0 mm 1 mps 560 mmHg 84%
    08:00 +16°C° 0.1 mm 1 mps 561 mmHg 78%
    09:00 +19°C° 0.1 mm 1 mps 562 mmHg 73%
    10:00 +21°C° 0.1 mm 1 mps 563 mmHg 68%
    11:00 +21°C° 0.6 mm 1 mps 562 mmHg 68%
    12:00 +21°C° 0.6 mm 2 mps 562 mmHg 69%
    13:00 +21°C° 0.6 mm 2 mps 561 mmHg 69%
    14:00 +22°C° 1.2 mm 1 mps 561 mmHg 71%
    15:00 +21°C° 1.2 mm 1 mps 560 mmHg 74%
    16:00 +21°C° 1.2 mm 1 mps 560 mmHg 76%
    17:00 +19°C° 0.3 mm 1 mps 559 mmHg 82%
    18:00 +16°C° 0.3 mm 1 mps 559 mmHg 88%
    19:00 +15°C° 0.3 mm 1 mps 559 mmHg 93%
    20:00 +14°C° 0 mm 1 mps 559 mmHg 94%
    21:00 +14°C° 0 mm 1 mps 559 mmHg 94%
    22:00 +14°C° 0 mm 1 mps 559 mmHg 94%
    23:00 +13°C° 0 mm 1 mps 559 mmHg 94%

    6 April, Monday

    Time Temperature Precipitation Wind Pressure Humidity
    00:00 +13°C° 0 mm 1 mps 559 mmHg 94%
    01:00 +13°C° 0 mm 1 mps 558 mmHg 94%
    02:00 +13°C° 0 mm 1 mps 558 mmHg 93%
    03:00 +13°C° 0 mm 1 mps 558 mmHg 93%
    04:00 +12°C° 0 mm 1 mps 558 mmHg 92%
    05:00 +13°C° 0 mm 1 mps 559 mmHg 91%
    06:00 +14°C° 0 mm 1 mps 560 mmHg 89%
    07:00 +14°C° 0 mm 1 mps 560 mmHg 87%
    08:00 +16°C° 0 mm 1 mps 562 mmHg 80%
    09:00 +20°C° 0 mm 1 mps 563 mmHg 72%
    10:00 +22°C° 0 mm 1 mps 564 mmHg 64%
    11:00 +21°C° 0.1 mm 2 mps 564 mmHg 62%
    12:00 +23°C° 0.1 mm 2 mps 563 mmHg 60%
    13:00 +23°C° 0.1 mm 2 mps 563 mmHg 58%
    14:00 +23°C° 0.3 mm 2 mps 562 mmHg 60%
    15:00 +21°C° 0.3 mm 2 mps 562 mmHg 62%
    16:00 +21°C° 0.3 mm 2 mps 561 mmHg 64%
    17:00 +20°C° 0.2 mm 1 mps 561 mmHg 73%
    18:00 +18°C° 0.2 mm 1 mps 560 mmHg 82%
    19:00 +15°C° 0.2 mm 1 mps 560 mmHg 92%
    20:00 +15°C° 0 mm 1 mps 560 mmHg 92%
    21:00 +15°C° 0 mm 1 mps 560 mmHg 93%
    22:00 +14°C° 0 mm 1 mps 560 mmHg 94%
    23:00 +14°C° 0 mm 1 mps 560 mmHg 93%

    7 April, Tuesday

    Time Temperature Precipitation Wind Pressure Humidity
    00:00 +14°C° 0 mm 1 mps 559 mmHg 93%
    01:00 +14°C° 0 mm 1 mps 559 mmHg 93%
    02:00 +13°C° 0 mm 1 mps 559 mmHg 93%
    03:00 +13°C° 0 mm 1 mps 559 mmHg 92%
    04:00 +13°C° 0 mm 1 mps 558 mmHg 92%
    05:00 +13°C° 0 mm 1 mps 559 mmHg 89%
    06:00 +14°C° 0 mm 1 mps 560 mmHg 86%
    07:00 +15°C° 0 mm 1 mps 560 mmHg 83%
    08:00 +18°C° 0 mm 1 mps 561 mmHg 75%
    09:00 +20°C° 0 mm 1 mps 563 mmHg 68%
    10:00 +22°C° 0 mm 1 mps 564 mmHg 61%
    11:00 +21°C° 0.5 mm 2 mps 563 mmHg 64%
    12:00 +21°C° 0.5 mm 2 mps 563 mmHg 67%
    13:00 +21°C° 0.5 mm 2 mps 562 mmHg 71%
    14:00 +20°C° 1.1 mm 2 mps 562 mmHg 75%
    15:00 +19°C° 1.1 mm 2 mps 561 mmHg 79%
    16:00 +19°C° 1.1 mm 1 mps 560 mmHg 83%
    17:00 +18°C° 0.3 mm 1 mps 560 mmHg 86%
    18:00 +16°C° 0.3 mm 1 mps 560 mmHg 90%
    19:00 +15°C° 0.3 mm 1 mps 560 mmHg 93%
    20:00 +15°C° 0 mm 1 mps 560 mmHg 92%
    21:00 +14°C° 0 mm 1 mps 560 mmHg 92%
    22:00 +14°C° 0 mm 1 mps 560 mmHg 91%
    23:00 +14°C° 0 mm 1 mps 560 mmHg 91%

    8 April, Wednesday

    Time Temperature Precipitation Wind Pressure Humidity
    00:00 +13°C° 0 mm 1 mps 559 mmHg 90%
    01:00 +12°C° 0 mm 0 mps 559 mmHg 90%
    02:00 +13°C° 0 mm 1 mps 558 mmHg 90%
    03:00 +12°C° 0 mm 1 mps 558 mmHg 90%
    04:00 +12°C° 0 mm 1 mps 558 mmHg 89%
    05:00 +13°C° 0 mm 1 mps 559 mmHg 88%
    06:00 +13°C° 0 mm 1 mps 559 mmHg 86%
    07:00 +14°C° 0 mm 1 mps 560 mmHg 85%
    08:00 +18°C° 0 mm 1 mps 561 mmHg 76%
    09:00 +20°C° 0 mm 1 mps 563 mmHg 68%
    10:00 +22°C° 0 mm 1 mps 564 mmHg 59%
    11:00 +23°C° 0.2 mm 2 mps 564 mmHg 59%
    12:00 +23°C° 0.2 mm 2 mps 563 mmHg 58%
    13:00 +23°C° 0.2 mm 2 mps 563 mmHg 58%
    14:00 +21°C° 0.3 mm 2 mps 562 mmHg 63%
    15:00 +20°C° 0.3 mm 2 mps 561 mmHg 68%
    16:00 +20°C° 0.3 mm 2 mps 560 mmHg 73%
    17:00 +19°C° 0.4 mm 1 mps 560 mmHg 80%
    18:00 +16°C° 0.4 mm 1 mps 559 mmHg 87%
    19:00 +15°C° 0.4 mm 1 mps 559 mmHg 93%
    20:00 +14°C° 0.1 mm 1 mps 559 mmHg 93%
    21:00 +14°C° 0.1 mm 1 mps 559 mmHg 93%
    22:00 +13°C° 0.1 mm 1 mps 559 mmHg 92%
    23:00 +13°C° 0 mm 1 mps 559 mmHg 92%
    Show more